OCN64 EDDF-KTPA

Flight info

Callsign OCN64
Flight time N/A
Altitude 34000
Route OBOKA5G/25C OBOKA Z29 TORNU DCT GALSO Q63 ERING L179 UGBET Q60 OKSAW DCT FELCA DCT FADZU DCT BANBA DCT LIMRI/M083F350 NATE ELSIR/M083F360 DCT CARAC/M083F380 M201 VIRST Y494 WHOOS/N0478F380 Y494 WEAKK Y493 ROWSY Y309 OZENA DCT HIBAC DADES2
Aircraft A333/H-SDE3GHIJ2J3J5M1RVWXY/LB2D1

Departure

Time 2026-04-16 13:10
Airport Frankfurt Main Airport (EDDF)

Arrival

Time N/A
Airport Tampa International Airport (KTPA)
Time Latitude Longitude Altitude Speed Heading
2026-04-16 12:15 50.04899 8.58071 363 ft 0 kts 339°
2026-04-16 12:21 50.04898 8.58071 363 ft 0 kts 339°
2026-04-16 12:49 50.04897 8.58071 363 ft 0 kts 339°
2026-04-16 13:00 50.04882 8.58080 368 ft 4 kts 339°
2026-04-16 13:00 50.04857 8.58095 366 ft 4 kts 341°
2026-04-16 13:00 50.04832 8.58103 366 ft 4 kts
2026-04-16 13:01 50.04811 8.58088 365 ft 3 kts 66°
2026-04-16 13:01 50.04813 8.58097 366 ft 4 kts 70°
2026-04-16 13:01 50.04822 8.58135 365 ft 2 kts 70°
2026-04-16 13:01 50.04823 8.58137 366 ft 0 kts 70°
2026-04-16 13:04 50.04825 8.58148 368 ft 4 kts 70°
2026-04-16 13:04 50.04834 8.58186 368 ft 5 kts 70°
2026-04-16 13:04 50.04856 8.58275 367 ft 10 kts 70°
2026-04-16 13:04 50.04878 8.58370 369 ft 9 kts 70°
2026-04-16 13:05 50.04900 8.58463 370 ft 9 kts 70°
2026-04-16 13:05 50.04922 8.58553 366 ft 9 kts 70°
2026-04-16 13:05 50.04923 8.58636 364 ft 7 kts 119°
2026-04-16 13:05 50.04891 8.58679 373 ft 5 kts 153°
2026-04-16 13:06 50.04865 8.58696 373 ft 4 kts 157°
2026-04-16 13:06 50.04840 8.58711 372 ft 4 kts 158°
2026-04-16 13:06 50.04798 8.58737 373 ft 9 kts 158°
2026-04-16 13:06 50.04724 8.58768 377 ft 13 kts 175°
2026-04-16 13:07 50.04631 8.58755 374 ft 15 kts 197°
2026-04-16 13:07 50.04533 8.58656 376 ft 15 kts 216°
2026-04-16 13:07 50.04482 8.58564 375 ft 0 kts 247°
2026-04-16 13:09 50.04471 8.58523 376 ft 15 kts 248°
2026-04-16 13:09 50.04367 8.58086 373 ft 72 kts 249°
2026-04-16 13:09 50.04125 8.57072 368 ft 126 kts 249°
2026-04-16 13:09 50.03759 8.55546 363 ft 174 kts 249°
2026-04-16 13:10 50.03318 8.53685 826 ft 187 kts 248°
2026-04-16 13:10 50.02870 8.51759 1615 ft 190 kts 253°
2026-04-16 13:10 50.02756 8.49768 2304 ft 184 kts 273°
2026-04-16 13:10 50.02841 8.47747 2849 ft 192 kts 273°
2026-04-16 13:11 50.02954 8.45630 3382 ft 200 kts 274°
2026-04-16 13:11 50.02970 8.43420 3872 ft 207 kts 260°
2026-04-16 13:11 50.02730 8.41145 4211 ft 225 kts 261°
2026-04-16 13:11 50.02480 8.38629 4437 ft 244 kts 261°
2026-04-16 13:12 50.02223 8.35922 4770 ft 259 kts 262°
2026-04-16 13:12 50.01967 8.33101 5168 ft 271 kts 262°
2026-04-16 13:12 50.01711 8.30141 5618 ft 280 kts 262°
2026-04-16 13:12 50.01616 8.27097 6189 ft 283 kts 278°
2026-04-16 13:13 50.02215 8.24197 6964 ft 282 kts 293°
2026-04-16 13:13 50.03029 8.21426 7629 ft 284 kts 294°
2026-04-16 13:13 50.03864 8.18661 8292 ft 286 kts 294°
2026-04-16 13:13 50.04764 8.15899 8957 ft 287 kts 296°
2026-04-16 13:14 50.05704 8.13157 9627 ft 287 kts 297°
2026-04-16 13:14 50.06803 8.10551 10276 ft 289 kts 308°
2026-04-16 13:14 50.08068 8.08085 10641 ft 299 kts 306°
2026-04-16 13:14 50.09371 8.05465 10882 ft 313 kts 306°
2026-04-16 13:15 50.10737 8.02731 11170 ft 327 kts 306°
2026-04-16 13:15 50.12173 7.99887 11438 ft 341 kts 307°
2026-04-16 13:15 50.13677 7.96933 11670 ft 354 kts 307°
2026-04-16 13:15 50.15232 7.93892 12009 ft 362 kts 307°
2026-04-16 13:16 50.16812 7.90805 12531 ft 366 kts 307°
2026-04-16 13:16 50.18403 7.87697 13138 ft 367 kts 307°
2026-04-16 13:16 50.20001 7.84572 13704 ft 369 kts 307°
2026-04-16 13:16 50.21601 7.81432 14241 ft 371 kts 307°
2026-04-16 13:17 50.23211 7.78258 14684 ft 374 kts 307°
2026-04-16 13:17 50.24829 7.75063 15181 ft 376 kts 306°
2026-04-16 13:17 50.26454 7.71845 15663 ft 378 kts 306°
2026-04-16 13:17 50.28086 7.68611 16155 ft 380 kts 306°
2026-04-16 13:18 50.29725 7.65361 16660 ft 381 kts 306°
2026-04-16 13:18 50.31372 7.62088 17129 ft 383 kts 306°
2026-04-16 13:18 50.33009 7.58837 17596 ft 386 kts 306°
2026-04-16 13:18 50.34670 7.55530 18054 ft 388 kts 306°
2026-04-16 13:19 50.36365 7.52151 18509 ft 390 kts 306°
2026-04-16 13:19 50.38021 7.48848 18877 ft 392 kts 306°
2026-04-16 13:19 50.39707 7.45479 19262 ft 394 kts 306°
2026-04-16 13:19 50.41403 7.42088 19665 ft 395 kts 306°
2026-04-16 13:20 50.43097 7.38697 20074 ft 396 kts 306°
2026-04-16 13:20 50.44800 7.35281 20445 ft 398 kts 306°
2026-04-16 13:20 50.46509 7.31847 20815 ft 400 kts 306°
2026-04-16 13:20 50.48221 7.28406 21189 ft 401 kts 306°
2026-04-16 13:21 50.49939 7.24946 21550 ft 403 kts 306°
2026-04-16 13:21 50.51667 7.21462 21912 ft 405 kts 306°
2026-04-16 13:21 50.53399 7.17964 22269 ft 406 kts 306°
2026-04-16 13:21 50.55135 7.14454 22623 ft 408 kts 306°
2026-04-16 13:22 50.56880 7.10922 22994 ft 409 kts 306°
2026-04-16 13:22 50.58632 7.07372 23320 ft 411 kts 306°
2026-04-16 13:22 50.60387 7.03809 23669 ft 413 kts 306°
2026-04-16 13:22 50.62148 7.00228 23973 ft 415 kts 306°
2026-04-16 13:23 50.63919 6.96624 24247 ft 417 kts 306°
2026-04-16 13:23 50.65093 6.94232 24432 ft 418 kts 306°
2026-04-16 13:23 50.66879 6.90587 24709 ft 419 kts 306°
2026-04-16 13:23 50.68661 6.86946 25039 ft 420 kts 305°
2026-04-16 13:24 50.71029 6.82102 25437 ft 421 kts 305°
2026-04-16 13:24 50.72821 6.78428 25707 ft 423 kts 305°
2026-04-16 13:24 50.74616 6.74744 25982 ft 424 kts 305°
2026-04-16 13:24 50.75834 6.72241 26159 ft 425 kts 305°
2026-04-16 13:25 50.77636 6.68532 26455 ft 427 kts 305°
2026-04-16 13:25 50.79445 6.64805 26720 ft 428 kts 305°
2026-04-16 13:25 50.81237 6.61107 26988 ft 429 kts 305°
2026-04-16 13:25 50.83053 6.57354 27266 ft 431 kts 305°
2026-04-16 13:26 50.84881 6.53571 27524 ft 433 kts 305°
2026-04-16 13:26 50.86709 6.49783 27760 ft 434 kts 305°
2026-04-16 13:26 50.88544 6.45974 28033 ft 435 kts 305°
2026-04-16 13:26 50.90385 6.42148 28306 ft 437 kts 304°
2026-04-16 13:27 50.92229 6.38311 28558 ft 438 kts 304°
2026-04-16 13:27 50.94075 6.34463 28817 ft 439 kts 304°
2026-04-16 13:27 50.95926 6.30599 29115 ft 440 kts 304°
2026-04-16 13:27 50.97776 6.26733 29485 ft 438 kts 304°
2026-04-16 13:28 50.99611 6.22893 29885 ft 436 kts 304°
2026-04-16 13:28 51.01439 6.19062 30250 ft 434 kts 304°
2026-04-16 13:28 51.03258 6.15243 30575 ft 433 kts 304°
2026-04-16 13:28 51.05060 6.11453 31008 ft 428 kts 304°
2026-04-16 13:29 51.06846 6.07695 31457 ft 423 kts 304°
2026-04-16 13:29 51.08606 6.03984 31877 ft 419 kts 304°
2026-04-16 13:29 51.10355 6.00289 32226 ft 416 kts 304°
2026-04-16 13:29 51.12088 5.96623 32540 ft 414 kts 305°
2026-04-16 13:30 51.13809 5.92977 32864 ft 411 kts 305°
2026-04-16 13:30 51.15524 5.89338 33188 ft 409 kts 305°
2026-04-16 13:30 51.17157 5.85654 33527 ft 405 kts 300°
2026-04-16 13:30 51.18505 5.81733 33843 ft 402 kts 294°
2026-04-16 13:31 51.19559 5.77675 34166 ft 401 kts 291°
2026-04-16 13:31 51.21449 5.69438 34204 ft 389 kts 290°
2026-04-16 13:32 51.23192 5.61347 34205 ft 383 kts 289°
2026-04-16 13:32 51.24915 5.53316 34208 ft 383 kts 289°
2026-04-16 13:33 51.26650 5.45273 34211 ft 383 kts 289°
2026-04-16 13:33 51.28388 5.37224 34212 ft 383 kts 289°
2026-04-16 13:34 51.30107 5.29236 34216 ft 383 kts 289°
2026-04-16 13:34 51.31831 5.21188 34205 ft 382 kts 289°
2026-04-16 13:35 51.33540 5.13181 34208 ft 380 kts 289°
2026-04-16 13:35 51.35241 5.05178 34209 ft 380 kts 289°
2026-04-16 13:36 51.36937 4.97166 34205 ft 380 kts 289°
2026-04-16 13:36 51.38626 4.89156 34218 ft 380 kts 289°
2026-04-16 13:37 51.40313 4.81121 34204 ft 380 kts 289°
2026-04-16 13:37 51.41981 4.73150 34207 ft 379 kts 289°
2026-04-16 13:38 51.43658 4.65103 34223 ft 378 kts 288°
2026-04-16 13:38 51.45306 4.57160 34204 ft 378 kts 288°
2026-04-16 13:39 51.46959 4.49163 34211 ft 378 kts 288°
2026-04-16 13:39 51.48606 4.41161 34215 ft 378 kts 288°
2026-04-16 13:40 51.50249 4.33151 34212 ft 378 kts 288°
2026-04-16 13:40 51.51884 4.25142 34211 ft 378 kts 288°
2026-04-16 13:41 51.53515 4.17123 34211 ft 378 kts 288°
2026-04-16 13:41 51.55139 4.09107 34211 ft 378 kts 288°
2026-04-16 13:42 51.56766 4.01039 34215 ft 383 kts 288°
2026-04-16 13:42 51.58419 3.92815 34215 ft 391 kts 288°
2026-04-16 13:43 51.60095 3.84435 34212 ft 395 kts 287°
2026-04-16 13:43 51.61718 3.76020 34219 ft 392 kts 284°
2026-04-16 13:44 51.62668 3.67434 34220 ft 393 kts 279°
2026-04-16 13:44 51.63360 3.58711 34222 ft 393 kts 278°
2026-04-16 13:45 51.63987 3.49967 34225 ft 393 kts 278°
2026-04-16 13:45 51.64613 3.41230 34224 ft 393 kts 278°
2026-04-16 13:46 51.65245 3.32486 34228 ft 393 kts 278°
2026-04-16 13:46 51.65875 3.23752 34230 ft 393 kts 278°
2026-04-16 13:47 51.66500 3.15008 34228 ft 393 kts 278°
2026-04-16 13:47 51.67117 3.06275 34233 ft 393 kts 277°
2026-04-16 13:48 51.67728 2.97520 34228 ft 393 kts 277°
2026-04-16 13:48 51.68328 2.88831 34217 ft 393 kts 277°
2026-04-16 13:49 51.68925 2.80073 34221 ft 393 kts 277°
2026-04-16 13:49 51.69518 2.71299 34218 ft 394 kts 277°
2026-04-16 13:50 51.70104 2.62534 34214 ft 394 kts 277°
2026-04-16 13:50 51.70683 2.53751 34214 ft 394 kts 277°
2026-04-16 13:51 51.71256 2.44966 34211 ft 394 kts 277°
2026-04-16 13:51 51.71823 2.36181 34212 ft 394 kts 276°
2026-04-16 13:52 51.72383 2.27382 34201 ft 395 kts 276°
2026-04-16 13:52 51.72938 2.18577 34202 ft 395 kts 276°
2026-04-16 13:53 51.73485 2.09773 34197 ft 395 kts 276°
2026-04-16 13:53 51.74027 2.00953 34200 ft 395 kts 276°
2026-04-16 13:54 51.74562 1.92136 34190 ft 395 kts 275°
2026-04-16 13:54 51.75087 1.83366 34187 ft 396 kts 275°
2026-04-16 13:55 51.75610 1.74525 34187 ft 396 kts 275°
2026-04-16 13:55 51.76126 1.65688 34181 ft 396 kts 275°
2026-04-16 13:56 51.76636 1.56840 34178 ft 396 kts 275°
2026-04-16 13:56 51.77139 1.47988 34181 ft 396 kts 275°
2026-04-16 13:57 51.77635 1.39134 34182 ft 397 kts 275°
2026-04-16 13:57 51.78127 1.30243 34177 ft 397 kts 275°
2026-04-16 13:58 51.78853 1.16907 34175 ft 397 kts 275°
2026-04-16 13:58 51.79328 1.08013 34173 ft 397 kts 275°
2026-04-16 13:59 51.79796 0.99115 34172 ft 398 kts 274°
2026-04-16 13:59 51.80257 0.90206 34165 ft 398 kts 274°
2026-04-16 14:00 51.80713 0.81274 34187 ft 399 kts 274°
2026-04-16 14:00 51.81159 0.72441 34158 ft 395 kts 274°
2026-04-16 14:01 51.81598 0.63600 34159 ft 395 kts 274°
2026-04-16 14:01 51.82030 0.54750 34157 ft 395 kts 274°
2026-04-16 14:02 51.82455 0.45901 34159 ft 395 kts 273°
2026-04-16 14:02 51.82874 0.37040 34157 ft 396 kts 273°
2026-04-16 14:03 51.83287 0.28167 34156 ft 396 kts 273°
2026-04-16 14:03 51.83694 0.19283 34158 ft 396 kts 273°
2026-04-16 14:04 51.84093 0.10413 34157 ft 396 kts 273°
2026-04-16 14:04 51.84486 0.01536 34154 ft 396 kts 273°
2026-04-16 14:05 51.84875 -0.07361 34158 ft 397 kts 272°
2026-04-16 14:05 51.85254 -0.16265 34158 ft 397 kts 272°
2026-04-16 14:06 51.85629 -0.25192 34157 ft 397 kts 272°
2026-04-16 14:06 51.85996 -0.34115 34155 ft 397 kts 272°
2026-04-16 14:07 51.86355 -0.42976 34158 ft 397 kts 272°
2026-04-16 14:07 51.86710 -0.51904 34159 ft 397 kts 272°
2026-04-16 14:08 51.87057 -0.60831 34151 ft 398 kts 272°
2026-04-16 14:08 51.87398 -0.69757 34149 ft 398 kts 272°
2026-04-16 14:09 51.87732 -0.78688 34142 ft 398 kts 272°
2026-04-16 14:09 51.88059 -0.87621 34139 ft 398 kts 272°
2026-04-16 14:10 51.88380 -0.96554 34132 ft 398 kts 272°
2026-04-16 14:10 51.88693 -1.05499 34130 ft 399 kts 271°
2026-04-16 14:11 51.89002 -1.14477 34129 ft 399 kts 271°
2026-04-16 14:11 51.89302 -1.23399 34129 ft 399 kts 271°
2026-04-16 14:12 51.89596 -1.32378 34129 ft 399 kts 271°
2026-04-16 14:12 51.89885 -1.41365 34129 ft 399 kts 271°
2026-04-16 14:13 51.90165 -1.50346 34131 ft 400 kts 271°
2026-04-16 14:13 51.90393 -1.57811 34130 ft 400 kts 270°
2026-04-16 14:14 51.90662 -1.66812 34127 ft 400 kts 270°
2026-04-16 14:14 51.90924 -1.75792 34129 ft 400 kts 270°
2026-04-16 14:15 51.91180 -1.84781 34128 ft 399 kts 270°
2026-04-16 14:15 51.91427 -1.93771 34130 ft 399 kts 270°
2026-04-16 14:16 51.91668 -2.02772 34133 ft 401 kts 270°
2026-04-16 14:16 51.91903 -2.11793 34129 ft 401 kts 270°
2026-04-16 14:17 51.92133 -2.20829 34129 ft 401 kts 270°
2026-04-16 14:17 51.92354 -2.29865 34130 ft 401 kts 270°
2026-04-16 14:18 51.92567 -2.38832 34128 ft 401 kts 270°
2026-04-16 14:18 51.92775 -2.47871 34130 ft 401 kts 269°
2026-04-16 14:19 51.92975 -2.56906 34123 ft 401 kts 269°
2026-04-16 14:19 51.93169 -2.65942 34117 ft 401 kts 269°
2026-04-16 14:20 51.93357 -2.74979 34116 ft 401 kts 269°
2026-04-16 14:20 51.93538 -2.84009 34095 ft 401 kts 269°
2026-04-16 14:21 51.93711 -2.93054 34108 ft 401 kts 269°
2026-04-16 14:21 51.93878 -3.02101 34101 ft 401 kts 269°
2026-04-16 14:22 51.94038 -3.11158 34102 ft 401 kts 269°
2026-04-16 14:22 51.94192 -3.20196 34087 ft 401 kts 268°
2026-04-16 14:23 51.94336 -3.29168 34111 ft 401 kts 268°
2026-04-16 14:23 51.94473 -3.38204 34120 ft 401 kts 268°
2026-04-16 14:24 51.94604 -3.47241 34116 ft 401 kts 268°
2026-04-16 14:24 51.94728 -3.56282 34119 ft 401 kts 268°
2026-04-16 14:25 51.94847 -3.65317 34120 ft 401 kts 268°
2026-04-16 14:25 51.94956 -3.74350 34113 ft 401 kts 268°
2026-04-16 14:26 51.95061 -3.83383 34116 ft 401 kts 268°
2026-04-16 14:26 51.95158 -3.92422 34120 ft 401 kts 267°
2026-04-16 14:27 51.95247 -4.01479 34113 ft 402 kts 267°
2026-04-16 14:27 51.95330 -4.10499 34110 ft 403 kts 267°
2026-04-16 14:28 51.95408 -4.19573 34102 ft 402 kts 267°
2026-04-16 14:28 51.95478 -4.28639 34111 ft 402 kts 267°
2026-04-16 14:29 51.95543 -4.37709 34106 ft 402 kts 267°
2026-04-16 14:29 51.95597 -4.46790 34108 ft 403 kts 266°
2026-04-16 14:30 51.95645 -4.55876 34099 ft 403 kts 266°
2026-04-16 14:30 51.95687 -4.64950 34100 ft 402 kts 266°
2026-04-16 14:31 51.95722 -4.74005 34098 ft 402 kts 266°
2026-04-16 14:31 51.95749 -4.83081 34100 ft 402 kts 266°
2026-04-16 14:32 51.95770 -4.92155 34105 ft 403 kts 266°
2026-04-16 14:32 51.95787 -5.01265 34100 ft 404 kts 266°
2026-04-16 14:33 51.95791 -5.10333 34099 ft 405 kts 266°
2026-04-16 14:33 51.95790 -5.19465 34099 ft 405 kts 266°
2026-04-16 14:34 51.95783 -5.28589 34092 ft 405 kts 266°
2026-04-16 14:34 51.95769 -5.37704 34092 ft 405 kts 265°
2026-04-16 14:35 51.95747 -5.46837 34091 ft 405 kts 265°
2026-04-16 14:35 51.95719 -5.55972 34091 ft 405 kts 265°
2026-04-16 14:36 51.95684 -5.65039 34089 ft 405 kts 265°
2026-04-16 14:36 51.95641 -5.74157 34081 ft 405 kts 265°
2026-04-16 14:37 51.95592 -5.83287 34078 ft 405 kts 265°
2026-04-16 14:37 51.95535 -5.92408 34076 ft 405 kts 265°
2026-04-16 14:38 51.95471 -6.01559 34073 ft 406 kts 265°
2026-04-16 14:38 51.95400 -6.10708 34067 ft 406 kts 265°
2026-04-16 14:39 51.95322 -6.19863 34067 ft 406 kts 265°
2026-04-16 14:39 51.95411 -6.29029 34061 ft 408 kts 268°
2026-04-16 14:40 51.95805 -6.38219 34082 ft 409 kts 269°
2026-04-16 14:40 51.96238 -6.47436 34052 ft 410 kts 269°
2026-04-16 14:41 51.96635 -6.56659 34058 ft 410 kts 268°
2026-04-16 14:41 51.97001 -6.65820 34050 ft 410 kts 268°
2026-04-16 14:42 51.97355 -6.75049 34055 ft 410 kts 268°
2026-04-16 14:42 51.97702 -6.84264 34051 ft 410 kts 268°
2026-04-16 14:43 51.98043 -6.93492 34044 ft 410 kts 268°
2026-04-16 14:43 51.98378 -7.02724 34036 ft 410 kts 268°
2026-04-16 14:44 51.98706 -7.11963 34035 ft 410 kts 268°
2026-04-16 14:44 51.99026 -7.21199 34032 ft 410 kts 268°
2026-04-16 14:45 51.99339 -7.30435 34021 ft 410 kts 268°
2026-04-16 14:45 51.99645 -7.39663 34029 ft 410 kts 267°
2026-04-16 14:46 51.99944 -7.48915 34018 ft 411 kts 267°
2026-04-16 14:46 52.00236 -7.58170 34017 ft 411 kts 267°
2026-04-16 14:47 52.00518 -7.67374 34010 ft 411 kts 267°
2026-04-16 14:47 52.00797 -7.76641 34009 ft 411 kts 267°
2026-04-16 14:48 52.01066 -7.85894 34024 ft 411 kts 266°
2026-04-16 14:48 52.01329 -7.95185 33999 ft 412 kts 266°
2026-04-16 14:49 52.01586 -8.04495 34000 ft 413 kts 266°
2026-04-16 14:49 52.01836 -8.13806 33986 ft 413 kts 266°
2026-04-16 14:50 52.02077 -8.23062 33976 ft 412 kts 266°
2026-04-16 14:50 52.02312 -8.32359 33971 ft 412 kts 266°
2026-04-16 14:51 52.02539 -8.41678 33974 ft 414 kts 266°
2026-04-16 14:51 52.02760 -8.51043 33985 ft 415 kts 266°
2026-04-16 14:53 52.03571 -8.88472 33961 ft 416 kts 265°
2026-04-16 14:54 52.03755 -8.97881 33959 ft 417 kts 265°
2026-04-16 14:54 52.03934 -9.07297 33938 ft 417 kts 265°
2026-04-16 14:55 52.04105 -9.16726 33936 ft 417 kts 265°
2026-04-16 14:55 52.04268 -9.26156 33932 ft 417 kts 265°
2026-04-16 14:56 52.04424 -9.35578 33972 ft 417 kts 265°
2026-04-16 14:56 52.04571 -9.45018 33936 ft 418 kts 265°
2026-04-16 14:57 52.04711 -9.54468 33935 ft 419 kts 265°
2026-04-16 14:57 52.04844 -9.63925 33935 ft 418 kts 265°
2026-04-16 14:58 52.05029 -9.78040 33931 ft 418 kts 265°
2026-04-16 14:59 52.05143 -9.87493 33940 ft 419 kts 265°
2026-04-16 14:59 52.05250 -9.96971 33906 ft 420 kts 265°
2026-04-16 15:00 52.05344 -10.06467 33895 ft 421 kts 265°
2026-04-16 15:00 52.05438 -10.15982 33903 ft 421 kts 264°
2026-04-16 15:01 52.05526 -10.25492 33894 ft 420 kts 264°
2026-04-16 15:01 52.05603 -10.34994 33898 ft 421 kts 264°
2026-04-16 15:02 52.05672 -10.44499 33880 ft 421 kts 264°
2026-04-16 15:02 52.05732 -10.53946 33888 ft 421 kts 264°
2026-04-16 15:03 52.05786 -10.63463 33885 ft 421 kts 264°
2026-04-16 15:03 52.05832 -10.72996 33872 ft 421 kts 264°
2026-04-16 15:04 52.05871 -10.82512 33871 ft 421 kts 264°
2026-04-16 15:04 52.05896 -10.90445 33866 ft 423 kts 264°
2026-04-16 15:05 52.05920 -11.00040 33857 ft 425 kts 264°
2026-04-16 15:05 52.05937 -11.09664 33846 ft 425 kts 264°
2026-04-16 15:06 52.05947 -11.19267 33849 ft 425 kts 264°
2026-04-16 15:06 52.05949 -11.28866 34070 ft 424 kts 264°
2026-04-16 15:06 52.05947 -11.33653 34266 ft 423 kts 264°
2026-04-16 15:07 52.05942 -11.38447 34411 ft 425 kts 264°
2026-04-16 15:07 52.05935 -11.43261 34515 ft 426 kts 264°